NKS614 KDTW-KLAS

Flight info

Callsign NKS614
Flight time 4h 0m
Altitude 34000
Route KAYLN3 SMUUV OBK IOW J60 HCT/N0452F360 J60 HVE GGAPP CHOWW4
Aircraft A321/M-SDE3FGHIRWXYZ/LB1

Departure

Time 2026-05-07 09:30
Airport Detroit Metropolitan Wayne County Airport (KDTW)

Arrival

Time 2026-05-07 13:30
Airport Harry Reid International Airport (KLAS)
Time Latitude Longitude Altitude Speed Heading
2026-05-07 09:11 42.22549 -83.34933 646 ft 0 kts 119°
2026-05-07 09:16 42.22551 -83.34939 646 ft 3 kts 119°
2026-05-07 09:16 42.22564 -83.34969 646 ft 2 kts 119°
2026-05-07 09:16 42.22575 -83.34995 648 ft 4 kts 138°
2026-05-07 09:16 42.22594 -83.35004 647 ft 4 kts 207°
2026-05-07 09:17 42.22615 -83.34989 647 ft 2 kts 208°
2026-05-07 09:17 42.22616 -83.34988 647 ft 0 kts 208°
2026-05-07 09:21 42.22583 -83.35013 649 ft 11 kts 208°
2026-05-07 09:21 42.22513 -83.35064 646 ft 12 kts 208°
2026-05-07 09:21 42.22444 -83.35123 647 ft 12 kts 224°
2026-05-07 09:22 42.22393 -83.35213 646 ft 12 kts 234°
2026-05-07 09:22 42.22343 -83.35292 646 ft 11 kts 214°
2026-05-07 09:22 42.22283 -83.35353 646 ft 11 kts 216°
2026-05-07 09:22 42.22217 -83.35403 646 ft 11 kts 208°
2026-05-07 09:23 42.22146 -83.35454 648 ft 12 kts 208°
2026-05-07 09:23 42.22072 -83.35509 646 ft 12 kts 209°
2026-05-07 09:23 42.21994 -83.35567 645 ft 13 kts 208°
2026-05-07 09:23 42.21918 -83.35580 645 ft 11 kts 151°
2026-05-07 09:24 42.21850 -83.35524 646 ft 12 kts 149°
2026-05-07 09:24 42.21822 -83.35428 645 ft 12 kts 89°
2026-05-07 09:24 42.21824 -83.35312 645 ft 13 kts 89°
2026-05-07 09:24 42.21826 -83.35190 646 ft 13 kts 88°
2026-05-07 09:25 42.21829 -83.35025 646 ft 20 kts 89°
2026-05-07 09:25 42.21832 -83.34835 646 ft 20 kts 88°
2026-05-07 09:25 42.21835 -83.34657 646 ft 18 kts 89°
2026-05-07 09:25 42.21847 -83.34516 647 ft 14 kts 58°
2026-05-07 09:26 42.21901 -83.34467 646 ft 15 kts 28°
2026-05-07 09:26 42.21993 -83.34399 646 ft 15 kts 28°
2026-05-07 09:26 42.22118 -83.34307 648 ft 16 kts 28°
2026-05-07 09:26 42.22182 -83.34260 645 ft 16 kts 28°
2026-05-07 09:27 42.22281 -83.34187 647 ft 16 kts 28°
2026-05-07 09:27 42.22381 -83.34114 646 ft 16 kts 28°
2026-05-07 09:27 42.22583 -83.33965 647 ft 17 kts 29°
2026-05-07 09:28 42.22686 -83.33889 646 ft 16 kts 28°
2026-05-07 09:28 42.22783 -83.33818 646 ft 16 kts 28°
2026-05-07 09:28 42.22861 -83.33755 645 ft 11 kts 46°
2026-05-07 09:28 42.22838 -83.33663 644 ft 11 kts 120°
2026-05-07 09:29 42.22790 -83.33644 645 ft 3 kts 209°
2026-05-07 09:29 42.22787 -83.33646 645 ft 0 kts 208°
2026-05-07 09:29 42.22783 -83.33649 645 ft 4 kts 208°
2026-05-07 09:29 42.22534 -83.33834 648 ft 79 kts 208°
2026-05-07 09:30 42.21852 -83.34336 647 ft 141 kts 208°
2026-05-07 09:30 42.20878 -83.35073 993 ft 164 kts 211°
2026-05-07 09:30 42.19892 -83.35843 1782 ft 164 kts 220°
2026-05-07 09:30 42.19136 -83.36989 2231 ft 169 kts 237°
2026-05-07 09:31 42.18392 -83.38334 2422 ft 189 kts 236°
2026-05-07 09:31 42.17561 -83.39836 2562 ft 211 kts 236°
2026-05-07 09:31 42.16633 -83.41506 2685 ft 235 kts 235°
2026-05-07 09:31 42.15607 -83.43345 3050 ft 252 kts 234°
2026-05-07 09:32 42.14537 -83.45244 3774 ft 255 kts 234°
2026-05-07 09:32 42.13463 -83.47141 4610 ft 254 kts 234°
2026-05-07 09:32 42.12387 -83.49038 5427 ft 254 kts 234°
2026-05-07 09:32 42.11315 -83.50933 6218 ft 255 kts 234°
2026-05-07 09:33 42.10235 -83.52842 6826 ft 259 kts 235°
2026-05-07 09:33 42.09145 -83.54771 7485 ft 259 kts 235°
2026-05-07 09:33 42.08047 -83.56707 8216 ft 261 kts 236°
2026-05-07 09:33 42.06995 -83.58702 8929 ft 261 kts 245°
2026-05-07 09:34 42.06421 -83.60998 9631 ft 260 kts 264°
2026-05-07 09:34 42.06461 -83.63383 10290 ft 260 kts 282°
2026-05-07 09:34 42.07109 -83.65654 10957 ft 263 kts 299°
2026-05-07 09:34 42.08193 -83.67750 11210 ft 283 kts 303°
2026-05-07 09:35 42.09394 -83.69978 11335 ft 303 kts 303°
2026-05-07 09:35 42.10669 -83.72327 11642 ft 316 kts 303°
2026-05-07 09:35 42.11980 -83.74734 12213 ft 319 kts 303°
2026-05-07 09:35 42.13299 -83.77156 12851 ft 321 kts 303°
2026-05-07 09:36 42.14622 -83.79591 13514 ft 323 kts 302°
2026-05-07 09:36 42.15945 -83.82038 14110 ft 324 kts 302°
2026-05-07 09:36 42.17276 -83.84509 14698 ft 326 kts 302°
2026-05-07 09:36 42.18607 -83.86994 15276 ft 328 kts 301°
2026-05-07 09:37 42.19941 -83.89494 15864 ft 329 kts 301°
2026-05-07 09:37 42.21285 -83.92008 16431 ft 331 kts 301°
2026-05-07 09:37 42.22637 -83.94532 17006 ft 333 kts 301°
2026-05-07 09:37 42.24001 -83.97073 17577 ft 335 kts 301°
2026-05-07 09:38 42.25373 -83.99632 18174 ft 337 kts 301°
2026-05-07 09:38 42.26757 -84.02210 18686 ft 339 kts 301°
2026-05-07 09:38 42.28139 -84.04793 19198 ft 341 kts 300°
2026-05-07 09:38 42.29527 -84.07395 19710 ft 342 kts 300°
2026-05-07 09:39 42.30917 -84.10007 20229 ft 344 kts 300°
2026-05-07 09:39 42.32320 -84.12649 20744 ft 345 kts 300°
2026-05-07 09:39 42.33706 -84.15259 21233 ft 347 kts 299°
2026-05-07 09:39 42.35118 -84.17916 21716 ft 349 kts 299°
2026-05-07 09:40 42.36540 -84.20594 22185 ft 351 kts 299°
2026-05-07 09:40 42.37964 -84.23280 22647 ft 352 kts 298°
2026-05-07 09:40 42.39397 -84.25987 23098 ft 354 kts 298°
2026-05-07 09:40 42.40832 -84.28696 23537 ft 356 kts 298°
2026-05-07 09:41 42.42101 -84.31553 23858 ft 352 kts 289°
2026-05-07 09:41 42.42913 -84.34663 24166 ft 349 kts 279°
2026-05-07 09:41 42.43247 -84.37900 24499 ft 347 kts 270°
2026-05-07 09:41 42.43323 -84.41133 24848 ft 348 kts 270°
2026-05-07 09:42 42.43406 -84.44414 25212 ft 349 kts 270°
2026-05-07 09:42 42.43494 -84.47722 25575 ft 351 kts 270°
2026-05-07 09:42 42.43583 -84.51025 25929 ft 352 kts 270°
2026-05-07 09:42 42.43672 -84.54342 26284 ft 353 kts 269°
2026-05-07 09:43 42.43757 -84.57676 26630 ft 354 kts 269°
2026-05-07 09:43 42.43843 -84.61013 26971 ft 355 kts 269°
2026-05-07 09:43 42.43929 -84.64363 27296 ft 357 kts 269°
2026-05-07 09:43 42.44013 -84.67687 27644 ft 358 kts 269°
2026-05-07 09:44 42.44098 -84.71060 27896 ft 361 kts 269°
2026-05-07 09:44 42.44180 -84.74472 28181 ft 363 kts 269°
2026-05-07 09:44 42.44258 -84.77892 28477 ft 364 kts 269°
2026-05-07 09:44 42.44334 -84.81317 28782 ft 365 kts 269°
2026-05-07 09:45 42.44410 -84.84770 29090 ft 367 kts 269°
2026-05-07 09:45 42.44486 -84.88235 29402 ft 368 kts 269°
2026-05-07 09:45 42.44562 -84.91704 29705 ft 369 kts 269°
2026-05-07 09:45 42.44640 -84.95193 30026 ft 370 kts 269°
2026-05-07 09:46 42.44718 -84.98671 30378 ft 368 kts 269°
2026-05-07 09:46 42.44796 -85.02135 30700 ft 368 kts 269°
2026-05-07 09:46 42.44871 -85.05539 31021 ft 367 kts 269°
2026-05-07 09:46 42.44946 -85.09006 31273 ft 368 kts 269°
2026-05-07 09:47 42.45018 -85.12473 31534 ft 368 kts 269°
2026-05-07 09:47 42.45088 -85.15949 31804 ft 368 kts 269°
2026-05-07 09:47 42.45158 -85.19416 32080 ft 368 kts 269°
2026-05-07 09:47 42.45228 -85.22881 32353 ft 368 kts 269°
2026-05-07 09:48 42.45298 -85.26345 32625 ft 368 kts 269°
2026-05-07 09:48 42.45367 -85.29803 32892 ft 367 kts 269°
2026-05-07 09:48 42.45432 -85.33263 33161 ft 367 kts 269°
2026-05-07 09:48 42.45494 -85.36719 33422 ft 367 kts 269°
2026-05-07 09:49 42.45555 -85.40171 33682 ft 367 kts 268°
2026-05-07 09:49 42.45617 -85.43624 33931 ft 367 kts 269°
2026-05-07 09:49 42.45679 -85.47083 34008 ft 367 kts 268°
2026-05-07 09:50 42.45795 -85.53990 34015 ft 366 kts 268°
2026-05-07 09:50 42.45906 -85.60829 34020 ft 366 kts 268°
2026-05-07 09:51 42.46013 -85.67716 34023 ft 366 kts 268°
2026-05-07 09:51 42.46120 -85.74613 34025 ft 366 kts 268°
2026-05-07 09:52 42.46222 -85.81501 34028 ft 366 kts 268°
2026-05-07 09:52 42.46319 -85.88393 34034 ft 366 kts 268°
2026-05-07 09:53 42.46411 -85.95295 34035 ft 366 kts 268°
2026-05-07 09:53 42.46503 -86.02192 34036 ft 366 kts 268°
2026-05-07 09:54 42.46586 -86.09087 34040 ft 366 kts 268°
2026-05-07 09:54 42.46244 -86.15890 34040 ft 364 kts 259°
2026-05-07 09:55 42.45383 -86.22657 34030 ft 365 kts 259°
2026-05-07 09:55 42.44518 -86.29444 34024 ft 366 kts 259°
2026-05-07 09:56 42.43644 -86.36246 34023 ft 367 kts 259°
2026-05-07 09:56 42.42772 -86.43060 34029 ft 368 kts 259°
2026-05-07 09:57 42.41897 -86.49892 34039 ft 368 kts 259°
2026-05-07 09:57 42.41014 -86.56724 34064 ft 369 kts 259°
2026-05-07 09:58 42.40113 -86.63566 34045 ft 370 kts 259°
2026-05-07 09:58 42.39219 -86.70401 34036 ft 371 kts 259°
2026-05-07 09:59 42.38317 -86.77290 34040 ft 372 kts 259°
2026-05-07 09:59 42.37408 -86.84178 34046 ft 372 kts 259°
2026-05-07 10:00 42.36484 -86.91084 34008 ft 373 kts 259°
2026-05-07 10:00 42.35571 -86.97931 34053 ft 372 kts 259°
2026-05-07 10:01 42.34654 -87.04815 34061 ft 371 kts 259°
2026-05-07 10:01 42.33731 -87.11695 34061 ft 371 kts 259°
2026-05-07 10:02 42.32800 -87.18568 34065 ft 371 kts 259°
2026-05-07 10:02 42.31870 -87.25428 34061 ft 371 kts 259°
2026-05-07 10:03 42.30943 -87.32236 34060 ft 371 kts 259°
2026-05-07 10:03 42.29998 -87.39101 34056 ft 372 kts 259°
2026-05-07 10:04 42.29041 -87.45992 34042 ft 374 kts 259°
2026-05-07 10:04 42.28085 -87.52909 34052 ft 375 kts 259°
2026-05-07 10:05 42.27127 -87.59832 34056 ft 375 kts 259°
2026-05-07 10:05 42.26165 -87.66728 34060 ft 376 kts 259°
2026-05-07 10:06 42.25189 -87.73657 34064 ft 376 kts 259°
2026-05-07 10:06 42.24204 -87.80585 34064 ft 376 kts 259°
2026-05-07 10:07 42.23224 -87.87517 34065 ft 376 kts 259°
2026-05-07 10:07 42.22234 -87.94439 34064 ft 376 kts 259°
2026-05-07 10:08 42.21123 -88.01331 34063 ft 376 kts 257°
2026-05-07 10:08 42.19896 -88.08189 34066 ft 376 kts 257°
2026-05-07 10:09 42.18661 -88.15043 34073 ft 376 kts 257°
2026-05-07 10:09 42.17445 -88.21898 34057 ft 375 kts 257°
2026-05-07 10:10 42.16239 -88.28746 34066 ft 375 kts 258°
2026-05-07 10:10 42.15235 -88.34420 34073 ft 374 kts 257°
2026-05-07 10:11 42.13819 -88.42350 34075 ft 374 kts 257°
2026-05-07 10:11 42.12807 -88.48022 34076 ft 374 kts 258°
2026-05-07 10:12 42.11591 -88.54842 34084 ft 374 kts 258°
2026-05-07 10:12 42.10364 -88.61651 34085 ft 374 kts 257°
2026-05-07 10:13 42.09130 -88.68441 34087 ft 373 kts 257°
2026-05-07 10:13 42.07896 -88.75234 34088 ft 373 kts 257°
2026-05-07 10:14 42.06662 -88.81985 34088 ft 373 kts 257°
2026-05-07 10:14 42.05426 -88.88764 34082 ft 373 kts 258°
2026-05-07 10:15 42.04189 -88.95551 34080 ft 373 kts 257°
2026-05-07 10:15 42.02945 -89.02322 34082 ft 373 kts 257°
2026-05-07 10:16 42.01691 -89.09100 34087 ft 373 kts 257°
2026-05-07 10:16 42.00431 -89.15884 34087 ft 373 kts 257°
2026-05-07 10:17 41.99175 -89.22614 34088 ft 373 kts 257°
2026-05-07 10:17 41.97907 -89.29384 34054 ft 373 kts 258°
2026-05-07 10:18 41.96652 -89.36137 34077 ft 372 kts 258°
2026-05-07 10:18 41.95390 -89.42887 34087 ft 371 kts 257°
2026-05-07 10:19 41.94115 -89.49608 34091 ft 371 kts 257°
2026-05-07 10:19 41.92848 -89.56281 34090 ft 371 kts 257°
2026-05-07 10:20 41.91573 -89.62991 34090 ft 371 kts 257°
2026-05-07 10:20 41.90294 -89.69708 34090 ft 370 kts 257°
2026-05-07 10:21 41.89014 -89.76406 34089 ft 370 kts 257°
2026-05-07 10:21 41.87726 -89.83116 34090 ft 370 kts 257°
2026-05-07 10:22 41.86445 -89.89773 34089 ft 371 kts 257°
2026-05-07 10:22 41.85156 -89.96467 34093 ft 371 kts 257°
2026-05-07 10:23 41.83860 -90.03159 34072 ft 371 kts 257°
2026-05-07 10:23 41.82550 -90.09872 34064 ft 372 kts 257°
2026-05-07 10:24 41.81238 -90.16588 34063 ft 373 kts 257°
2026-05-07 10:24 41.79918 -90.23325 34064 ft 373 kts 257°
2026-05-07 10:25 41.78594 -90.30063 34067 ft 373 kts 257°
2026-05-07 10:25 41.77269 -90.36802 34021 ft 374 kts 257°
2026-05-07 10:26 41.75935 -90.43536 34056 ft 373 kts 257°
2026-05-07 10:26 41.74613 -90.50200 34053 ft 373 kts 257°
2026-05-07 10:27 41.73275 -90.56904 34054 ft 372 kts 257°
2026-05-07 10:27 41.71937 -90.63600 34057 ft 372 kts 257°
2026-05-07 10:28 41.70603 -90.70289 34059 ft 372 kts 257°
2026-05-07 10:28 41.69259 -90.76963 34070 ft 372 kts 257°
2026-05-07 10:29 41.67906 -90.83644 34070 ft 371 kts 257°
2026-05-07 10:29 41.66552 -90.90309 34070 ft 371 kts 257°
2026-05-07 10:30 41.64528 -91.00266 34071 ft 371 kts 257°
2026-05-07 10:30 41.63169 -91.06926 34072 ft 371 kts 257°
2026-05-07 10:31 41.61808 -91.13584 34075 ft 371 kts 257°
2026-05-07 10:31 41.60446 -91.20184 34077 ft 371 kts 257°
2026-05-07 10:32 41.59084 -91.26819 34078 ft 370 kts 257°
2026-05-07 10:32 41.57709 -91.33437 34075 ft 369 kts 257°
2026-05-07 10:33 41.56338 -91.40049 34074 ft 369 kts 257°
2026-05-07 10:33 41.54965 -91.46650 34044 ft 369 kts 257°
2026-05-07 10:34 41.53593 -91.53236 34056 ft 368 kts 256°
2026-05-07 10:34 41.52218 -91.59808 34060 ft 367 kts 256°
2026-05-07 10:35 41.51422 -91.66508 34061 ft 365 kts 263°
2026-05-07 10:35 41.50797 -91.73191 34063 ft 365 kts 263°
2026-05-07 10:36 41.50158 -91.79926 34066 ft 365 kts 263°
2026-05-07 10:36 41.49517 -91.86651 34069 ft 365 kts 263°
2026-05-07 10:37 41.48873 -91.93374 34056 ft 365 kts 263°
2026-05-07 10:37 41.48229 -92.00113 34041 ft 366 kts 263°
2026-05-07 10:38 41.47577 -92.06849 34052 ft 366 kts 263°
2026-05-07 10:38 41.46922 -92.13596 34050 ft 367 kts 263°
2026-05-07 10:39 41.46266 -92.20329 34055 ft 367 kts 263°
2026-05-07 10:39 41.45604 -92.27037 34048 ft 367 kts 263°
2026-05-07 10:40 41.44934 -92.33782 34031 ft 367 kts 263°
2026-05-07 10:40 41.44260 -92.40530 34034 ft 368 kts 263°
2026-05-07 10:41 41.43582 -92.47286 34033 ft 368 kts 263°
2026-05-07 10:41 41.42900 -92.54045 34037 ft 368 kts 263°
2026-05-07 10:42 41.42218 -92.60779 34043 ft 368 kts 263°
2026-05-07 10:42 41.41532 -92.67544 34023 ft 368 kts 263°
2026-05-07 10:43 41.40834 -92.74312 34025 ft 369 kts 263°
2026-05-07 10:43 41.40134 -92.81099 34024 ft 370 kts 263°
2026-05-07 10:44 41.39426 -92.87888 34011 ft 370 kts 263°
2026-05-07 10:44 41.38723 -92.94637 34018 ft 370 kts 263°
2026-05-07 10:45 41.38008 -93.01433 34025 ft 370 kts 263°
2026-05-07 10:45 41.37284 -93.08221 34003 ft 370 kts 263°
2026-05-07 10:46 41.36566 -93.15020 34002 ft 371 kts 263°
2026-05-07 10:46 41.35842 -93.21828 34005 ft 372 kts 263°
2026-05-07 10:47 41.35103 -93.28661 34013 ft 372 kts 263°
2026-05-07 10:47 41.34368 -93.35438 34019 ft 372 kts 263°
2026-05-07 10:48 41.33622 -93.42297 34018 ft 372 kts 263°
2026-05-07 10:48 41.32881 -93.49079 34028 ft 372 kts 263°
2026-05-07 10:49 41.32133 -93.55902 34027 ft 373 kts 263°
2026-05-07 10:49 41.31375 -93.62722 34026 ft 373 kts 263°
2026-05-07 10:50 41.30616 -93.69540 34029 ft 372 kts 263°
2026-05-07 10:50 41.29855 -93.76312 34034 ft 372 kts 263°
2026-05-07 10:51 41.29086 -93.83134 33969 ft 372 kts 264°
2026-05-07 10:51 41.28315 -93.89949 33981 ft 374 kts 264°
2026-05-07 10:52 41.27538 -93.96801 34006 ft 376 kts 263°
2026-05-07 10:52 41.26754 -94.03650 34022 ft 377 kts 263°
2026-05-07 10:53 41.25955 -94.10536 34027 ft 377 kts 263°
2026-05-07 10:53 41.25162 -94.17415 34029 ft 377 kts 263°
2026-05-07 10:54 41.24363 -94.24296 33995 ft 377 kts 264°
2026-05-07 10:54 41.23553 -94.31196 33996 ft 378 kts 264°
2026-05-07 10:55 41.22742 -94.38110 34003 ft 379 kts 264°
2026-05-07 10:55 41.21925 -94.45036 34011 ft 379 kts 264°
2026-05-07 10:56 41.21100 -94.51969 34017 ft 380 kts 263°
2026-05-07 10:56 41.20278 -94.58854 33996 ft 380 kts 264°
2026-05-07 10:57 41.19446 -94.65804 33997 ft 381 kts 264°
2026-05-07 10:57 41.18607 -94.72768 33999 ft 382 kts 264°
2026-05-07 10:58 41.17762 -94.79751 34004 ft 383 kts 264°
2026-05-07 10:58 41.16908 -94.86739 34009 ft 383 kts 264°
2026-05-07 10:59 41.16046 -94.93732 34013 ft 384 kts 264°
2026-05-07 10:59 41.15193 -95.00673 33996 ft 384 kts 265°
2026-05-07 11:00 41.14331 -95.07686 33999 ft 385 kts 265°
2026-05-07 11:00 41.13603 -95.13531 34002 ft 386 kts 264°
2026-05-07 11:01 41.12724 -95.20559 34008 ft 386 kts 264°
2026-05-07 11:01 41.11839 -95.27592 34017 ft 387 kts 264°
2026-05-07 11:02 41.10949 -95.34618 33983 ft 387 kts 265°
2026-05-07 11:02 41.10053 -95.41657 33998 ft 387 kts 265°
2026-05-07 11:03 41.09156 -95.48723 34007 ft 388 kts 265°
2026-05-07 11:03 41.08258 -95.55735 34015 ft 388 kts 265°
2026-05-07 11:04 41.07345 -95.62800 34004 ft 389 kts 265°
2026-05-07 11:04 41.06427 -95.69870 34004 ft 389 kts 265°
2026-05-07 11:05 41.05510 -95.76928 33982 ft 388 kts 265°
2026-05-07 11:05 41.04586 -95.83981 33985 ft 388 kts 265°
2026-05-07 11:06 41.03663 -95.90982 33985 ft 388 kts 265°
2026-05-07 11:06 41.02737 -95.98021 34007 ft 388 kts 265°
2026-05-07 11:07 41.01806 -96.05055 34009 ft 388 kts 265°
2026-05-07 11:07 41.00867 -96.12090 33989 ft 387 kts 266°
2026-05-07 11:08 40.99924 -96.19110 34001 ft 387 kts 266°
2026-05-07 11:08 40.98979 -96.26138 34006 ft 387 kts 266°
2026-05-07 11:09 40.98028 -96.33159 34014 ft 387 kts 266°
2026-05-07 11:09 40.97077 -96.40150 34020 ft 387 kts 266°
2026-05-07 11:10 40.96121 -96.47160 33991 ft 387 kts 266°
2026-05-07 11:10 40.95149 -96.54185 34010 ft 387 kts 266°
2026-05-07 11:11 40.94178 -96.61195 33974 ft 387 kts 266°
2026-05-07 11:11 40.93216 -96.68162 33992 ft 388 kts 266°
2026-05-07 11:12 40.92250 -96.75179 34006 ft 387 kts 267°
2026-05-07 11:12 40.91520 -96.82217 34016 ft 385 kts 269°
2026-05-07 11:13 40.90926 -96.89254 33996 ft 385 kts 269°
2026-05-07 11:13 40.90304 -96.96301 34004 ft 386 kts 269°
2026-05-07 11:14 40.89632 -97.03351 34014 ft 387 kts 269°
2026-05-07 11:14 40.88944 -97.10369 34021 ft 387 kts 268°
2026-05-07 11:15 40.88249 -97.17431 34025 ft 387 kts 268°
2026-05-07 11:15 40.87558 -97.24489 34031 ft 387 kts 268°
2026-05-07 11:16 40.86860 -97.31546 34034 ft 387 kts 268°
2026-05-07 11:16 40.86162 -97.38601 34035 ft 387 kts 268°
2026-05-07 11:17 40.85461 -97.45655 34031 ft 387 kts 268°
2026-05-07 11:17 40.84754 -97.52713 34011 ft 387 kts 268°
2026-05-07 11:18 40.84048 -97.59762 33967 ft 387 kts 268°
2026-05-07 11:18 40.83333 -97.66823 33973 ft 388 kts 268°
2026-05-07 11:19 40.82610 -97.73894 33986 ft 389 kts 268°
2026-05-07 11:19 40.81889 -97.80935 33997 ft 389 kts 268°
2026-05-07 11:20 40.81158 -97.88026 33999 ft 390 kts 268°
2026-05-07 11:20 40.80422 -97.95113 34004 ft 390 kts 268°
2026-05-07 11:21 40.79679 -98.02212 33985 ft 390 kts 267°
2026-05-07 11:21 40.78932 -98.09319 33992 ft 391 kts 267°
2026-05-07 11:22 40.78184 -98.16396 33996 ft 391 kts 267°
2026-05-07 11:22 40.77425 -98.23508 34015 ft 392 kts 267°
2026-05-07 11:23 40.76654 -98.30639 34017 ft 392 kts 267°
2026-05-07 11:23 40.75884 -98.37758 33981 ft 392 kts 267°
2026-05-07 11:24 40.75121 -98.44832 33994 ft 393 kts 266°
2026-05-07 11:24 40.74341 -98.51973 34000 ft 393 kts 266°
2026-05-07 11:25 40.73553 -98.59112 34005 ft 394 kts 266°
2026-05-07 11:25 40.72761 -98.66262 34009 ft 394 kts 266°
2026-05-07 11:26 40.71973 -98.73363 33977 ft 394 kts 266°
2026-05-07 11:26 40.71179 -98.80508 33982 ft 394 kts 266°
2026-05-07 11:27 40.70379 -98.87665 33985 ft 395 kts 266°
2026-05-07 11:27 40.69571 -98.94826 33995 ft 395 kts 266°
2026-05-07 11:28 40.68756 -99.01992 33997 ft 395 kts 266°
2026-05-07 11:28 40.67933 -99.09152 33985 ft 396 kts 266°
2026-05-07 11:29 40.67108 -99.16324 33991 ft 396 kts 265°
2026-05-07 11:29 40.66275 -99.23504 33999 ft 396 kts 265°
2026-05-07 11:30 40.65445 -99.30639 34001 ft 397 kts 265°
2026-05-07 11:30 40.64613 -99.37826 34020 ft 397 kts 265°
2026-05-07 11:31 40.63775 -99.45006 34023 ft 397 kts 265°
2026-05-07 11:31 40.62918 -99.52183 34001 ft 397 kts 265°
2026-05-07 11:32 40.61636 -99.62973 34026 ft 397 kts 265°
2026-05-07 11:33 40.60774 -99.70110 34020 ft 398 kts 265°
2026-05-07 11:33 40.59901 -99.77303 34024 ft 398 kts 265°
2026-05-07 11:34 40.59034 -99.84499 34005 ft 398 kts 265°
2026-05-07 11:34 40.58161 -99.91696 34006 ft 398 kts 265°
2026-05-07 11:35 40.57285 -99.98890 34019 ft 398 kts 265°
2026-05-07 11:35 40.56399 -100.06040 34021 ft 398 kts 264°
2026-05-07 11:36 40.55505 -100.13247 34023 ft 398 kts 264°
2026-05-07 11:36 40.54617 -100.20414 34009 ft 398 kts 264°
2026-05-07 11:37 40.53718 -100.27608 34010 ft 399 kts 264°
2026-05-07 11:37 40.52809 -100.34803 34028 ft 399 kts 264°
2026-05-07 11:38 40.51896 -100.42008 34028 ft 399 kts 264°
2026-05-07 11:38 40.50985 -100.49206 34029 ft 399 kts 264°
2026-05-07 11:39 40.50072 -100.56399 34033 ft 399 kts 264°
2026-05-07 11:39 40.49154 -100.63559 34011 ft 399 kts 265°
2026-05-07 11:40 40.48224 -100.70770 34014 ft 399 kts 265°
2026-05-07 11:40 40.47292 -100.77966 34022 ft 400 kts 265°
2026-05-07 11:41 40.46357 -100.85124 34032 ft 400 kts 264°
2026-05-07 11:41 40.45406 -100.92323 34036 ft 400 kts 264°
2026-05-07 11:42 40.44448 -100.99515 34035 ft 400 kts 264°
2026-05-07 11:42 40.43476 -101.06703 34037 ft 400 kts 264°
2026-05-07 11:43 40.42504 -101.13845 34037 ft 400 kts 264°
2026-05-07 11:43 40.41521 -101.21023 34038 ft 400 kts 264°
2026-05-07 11:44 40.40538 -101.28201 34028 ft 400 kts 264°
2026-05-07 11:44 40.39552 -101.35378 33993 ft 400 kts 265°
2026-05-07 11:45 40.38563 -101.42561 34118 ft 403 kts 265°
2026-05-07 11:45 40.38061 -101.46185 34366 ft 403 kts 264°
2026-05-07 11:45 40.37557 -101.49797 34637 ft 402 kts 264°
2026-05-07 11:45 40.37047 -101.53422 34922 ft 402 kts 264°
2026-05-07 11:46 40.36539 -101.57019 35194 ft 401 kts 264°
2026-05-07 11:46 40.36040 -101.60563 35470 ft 400 kts 264°
2026-05-07 11:46 40.35531 -101.64189 35754 ft 399 kts 263°
2026-05-07 11:46 40.35036 -101.67717 35937 ft 399 kts 263°
2026-05-07 11:47 40.34532 -101.71304 36002 ft 399 kts 263°
2026-05-07 11:47 40.33526 -101.78444 36009 ft 398 kts 263°
2026-05-07 11:48 40.32512 -101.85583 36013 ft 398 kts 263°
2026-05-07 11:48 40.31491 -101.92715 36018 ft 398 kts 263°
2026-05-07 11:49 40.30475 -101.99805 36022 ft 398 kts 263°
2026-05-07 11:49 40.29442 -102.06944 36004 ft 398 kts 263°
2026-05-07 11:50 40.28405 -102.14068 36011 ft 398 kts 263°
2026-05-07 11:50 40.27366 -102.21199 36019 ft 399 kts 263°
2026-05-07 11:51 40.26318 -102.28333 36026 ft 399 kts 263°
2026-05-07 11:51 40.25450 -102.34262 36029 ft 399 kts 263°
2026-05-07 11:52 40.24404 -102.41404 36016 ft 399 kts 263°
2026-05-07 11:52 40.23353 -102.48543 36010 ft 399 kts 263°
2026-05-07 11:53 40.22302 -102.55627 36013 ft 399 kts 263°
2026-05-07 11:53 40.21231 -102.62760 36016 ft 399 kts 263°
2026-05-07 11:54 40.20155 -102.69898 36027 ft 399 kts 263°
2026-05-07 11:54 40.19077 -102.77025 36030 ft 399 kts 263°
2026-05-07 11:55 40.18001 -102.84151 36022 ft 399 kts 263°
2026-05-07 11:55 40.16919 -102.91283 36028 ft 399 kts 262°
2026-05-07 11:56 40.15829 -102.98413 36033 ft 399 kts 262°
2026-05-07 11:56 40.14739 -103.05535 36036 ft 399 kts 262°
2026-05-07 11:57 40.13648 -103.12618 36044 ft 399 kts 262°
2026-05-07 11:57 40.12543 -103.19740 36011 ft 400 kts 262°
2026-05-07 11:58 40.11437 -103.26866 36017 ft 401 kts 262°
2026-05-07 11:58 40.10325 -103.34008 36026 ft 401 kts 262°
2026-05-07 11:59 40.09204 -103.41156 36038 ft 402 kts 262°
2026-05-07 11:59 40.08078 -103.48304 36049 ft 402 kts 262°
2026-05-07 12:00 40.06946 -103.55452 36047 ft 402 kts 262°
2026-05-07 12:00 40.05821 -103.62558 36056 ft 402 kts 262°
2026-05-07 12:01 40.04684 -103.69720 36057 ft 403 kts 262°
2026-05-07 12:01 40.03538 -103.76880 36067 ft 403 kts 262°
2026-05-07 12:02 40.02383 -103.84049 36080 ft 403 kts 262°
2026-05-07 12:02 40.01229 -103.91209 36050 ft 403 kts 262°
2026-05-07 12:03 40.00079 -103.98332 36054 ft 404 kts 262°
2026-05-07 12:03 39.98905 -104.05563 36059 ft 405 kts 262°
2026-05-07 12:04 39.97734 -104.12701 36062 ft 405 kts 262°
2026-05-07 12:04 39.96548 -104.19893 36072 ft 406 kts 262°
2026-05-07 12:05 39.95366 -104.27096 36065 ft 406 kts 262°
2026-05-07 12:05 39.94181 -104.34297 36073 ft 407 kts 262°
2026-05-07 12:06 39.92989 -104.41468 36084 ft 407 kts 262°
2026-05-07 12:06 39.91781 -104.48687 36093 ft 408 kts 262°
2026-05-07 12:07 39.90566 -104.55918 36083 ft 408 kts 262°
2026-05-07 12:07 39.89351 -104.63101 36087 ft 408 kts 261°
2026-05-07 12:08 39.88032 -104.70300 36089 ft 409 kts 260°
2026-05-07 12:08 39.86626 -104.77479 36093 ft 409 kts 260°
2026-05-07 12:09 39.85229 -104.84654 36092 ft 409 kts 260°
2026-05-07 12:09 39.83848 -104.91845 36096 ft 409 kts 260°
2026-05-07 12:10 39.82471 -104.99024 36081 ft 409 kts 261°
2026-05-07 12:10 39.81085 -105.06202 36101 ft 409 kts 260°
2026-05-07 12:11 39.79695 -105.13348 36106 ft 409 kts 260°
2026-05-07 12:11 39.78297 -105.20524 36106 ft 409 kts 260°
2026-05-07 12:12 39.76902 -105.27658 36107 ft 409 kts 260°
2026-05-07 12:12 39.75496 -105.34823 36123 ft 409 kts 261°
2026-05-07 12:13 39.74083 -105.41964 36137 ft 407 kts 260°
2026-05-07 12:13 39.72670 -105.49089 36142 ft 406 kts 261°
2026-05-07 12:14 39.71265 -105.56187 36176 ft 405 kts 261°
2026-05-07 12:14 39.69870 -105.63245 36174 ft 405 kts 261°
2026-05-07 12:15 39.68459 -105.70329 36150 ft 406 kts 260°
2026-05-07 12:15 39.67035 -105.77460 36155 ft 409 kts 260°
2026-05-07 12:16 39.65592 -105.84621 36201 ft 411 kts 260°
2026-05-07 12:16 39.64144 -105.91796 36203 ft 411 kts 260°
2026-05-07 12:17 39.62683 -105.98981 36242 ft 412 kts 260°
2026-05-07 12:17 39.61231 -106.06125 36200 ft 413 kts 259°
2026-05-07 12:18 39.59763 -106.13362 36226 ft 416 kts 259°
2026-05-07 12:18 39.58291 -106.20595 36229 ft 418 kts 259°
2026-05-07 12:19 39.56790 -106.27901 36250 ft 419 kts 259°
2026-05-07 12:19 39.55275 -106.35202 36253 ft 419 kts 259°
2026-05-07 12:20 39.53761 -106.42518 36256 ft 420 kts 259°
2026-05-07 12:20 39.52242 -106.49832 36281 ft 421 kts 259°
2026-05-07 12:21 39.50725 -106.57117 36280 ft 422 kts 259°
2026-05-07 12:21 39.49197 -106.64445 36298 ft 422 kts 259°
2026-05-07 12:22 39.47658 -106.71782 36280 ft 422 kts 259°
2026-05-07 12:22 39.46116 -106.79121 36278 ft 422 kts 259°
2026-05-07 12:23 39.44569 -106.86452 36284 ft 422 kts 259°
2026-05-07 12:23 39.42950 -106.93708 36316 ft 423 kts 257°
2026-05-07 12:24 39.41126 -107.00969 36318 ft 424 kts 256°
2026-05-07 12:24 39.39256 -107.08201 36280 ft 424 kts 257°
2026-05-07 12:25 39.37416 -107.15456 36262 ft 425 kts 257°
2026-05-07 12:25 39.35597 -107.22718 36251 ft 425 kts 257°
2026-05-07 12:26 39.33774 -107.29982 36256 ft 425 kts 257°
2026-05-07 12:26 39.31935 -107.37246 36265 ft 425 kts 257°
2026-05-07 12:27 39.30096 -107.44458 36240 ft 426 kts 257°
2026-05-07 12:27 39.28241 -107.51726 36243 ft 426 kts 257°
2026-05-07 12:28 39.26387 -107.58992 36248 ft 427 kts 257°
2026-05-07 12:28 39.24542 -107.66169 36240 ft 427 kts 257°
2026-05-07 12:29 39.22670 -107.73444 36250 ft 428 kts 257°
2026-05-07 12:29 39.20810 -107.80686 36209 ft 428 kts 257°
2026-05-07 12:30 39.18925 -107.87991 36210 ft 430 kts 257°
2026-05-07 12:30 39.17024 -107.95312 36211 ft 430 kts 256°
2026-05-07 12:31 39.15122 -108.02629 36209 ft 431 kts 256°
2026-05-07 12:31 39.13219 -108.09908 36223 ft 431 kts 256°
2026-05-07 12:32 39.11301 -108.17231 36234 ft 431 kts 256°
2026-05-07 12:32 39.09382 -108.24553 36247 ft 431 kts 256°
2026-05-07 12:33 39.06498 -108.35514 36266 ft 431 kts 256°
2026-05-07 12:33 39.04573 -108.42770 36271 ft 431 kts 256°
2026-05-07 12:34 39.02632 -108.50085 36255 ft 432 kts 256°
2026-05-07 12:34 39.00686 -108.57410 36250 ft 433 kts 256°
2026-05-07 12:35 38.98728 -108.64736 36244 ft 433 kts 256°
2026-05-07 12:35 38.96767 -108.72074 36228 ft 434 kts 256°
2026-05-07 12:36 38.94814 -108.79358 36160 ft 434 kts 256°
2026-05-07 12:36 38.92830 -108.86739 36163 ft 435 kts 256°
2026-05-07 12:37 38.90860 -108.94046 36169 ft 435 kts 256°
2026-05-07 12:37 38.88869 -109.01391 36160 ft 436 kts 256°
2026-05-07 12:38 38.86873 -109.08737 36165 ft 436 kts 256°
2026-05-07 12:38 38.84875 -109.16096 36155 ft 437 kts 256°
2026-05-07 12:39 38.82868 -109.23478 36156 ft 438 kts 256°
2026-05-07 12:39 38.81192 -109.29607 36168 ft 439 kts 255°
2026-05-07 12:40 38.78830 -109.38198 36179 ft 440 kts 255°
2026-05-07 12:40 38.76792 -109.45606 36186 ft 440 kts 255°
2026-05-07 12:41 38.75093 -109.51752 36168 ft 440 kts 255°
2026-05-07 12:41 38.73046 -109.59149 36169 ft 441 kts 255°
2026-05-07 12:42 38.70994 -109.66556 36174 ft 441 kts 255°
2026-05-07 12:42 38.68926 -109.73975 36229 ft 442 kts 255°
2026-05-07 12:43 38.66862 -109.81385 36177 ft 442 kts 255°
2026-05-07 12:43 38.64810 -109.88746 36181 ft 442 kts 255°
2026-05-07 12:44 38.62728 -109.96150 36181 ft 442 kts 255°
2026-05-07 12:44 38.60641 -110.03557 36186 ft 443 kts 255°
2026-05-07 12:45 38.58550 -110.10973 36185 ft 443 kts 255°
2026-05-07 12:45 38.56450 -110.18379 36173 ft 443 kts 255°
2026-05-07 12:46 38.54352 -110.25792 36167 ft 443 kts 255°
2026-05-07 12:46 38.52247 -110.33199 36175 ft 444 kts 255°
2026-05-07 12:47 38.50137 -110.40607 36175 ft 444 kts 255°
2026-05-07 12:47 38.48016 -110.48027 36165 ft 444 kts 255°
2026-05-07 12:48 38.45889 -110.55378 36169 ft 445 kts 255°
2026-05-07 12:48 38.43751 -110.62798 36275 ft 446 kts 255°
2026-05-07 12:49 38.41374 -110.70125 36279 ft 451 kts 244°
2026-05-07 12:49 38.37658 -110.76660 36279 ft 456 kts 237°
2026-05-07 12:50 38.33769 -110.83061 36245 ft 457 kts 236°
2026-05-07 12:50 38.29886 -110.89469 36219 ft 457 kts 236°
2026-05-07 12:51 38.25998 -110.95883 36197 ft 458 kts 236°
2026-05-07 12:51 38.22106 -111.02291 36163 ft 458 kts 236°
2026-05-07 12:52 38.18202 -111.08702 36145 ft 458 kts 236°
2026-05-07 12:52 38.14293 -111.15107 36129 ft 459 kts 236°
2026-05-07 12:53 38.10372 -111.21524 36132 ft 459 kts 236°
2026-05-07 12:53 38.06479 -111.27889 36130 ft 459 kts 236°
2026-05-07 12:54 38.02548 -111.34297 36125 ft 460 kts 236°
2026-05-07 12:54 37.98609 -111.40692 36146 ft 460 kts 236°
2026-05-07 12:55 37.94664 -111.47099 36145 ft 460 kts 236°
2026-05-07 12:55 37.90714 -111.53489 36144 ft 461 kts 235°
2026-05-07 12:56 37.86760 -111.59876 36141 ft 461 kts 235°
2026-05-07 12:56 37.82830 -111.66213 36135 ft 461 kts 235°
2026-05-07 12:57 37.78874 -111.72587 36146 ft 461 kts 235°
2026-05-07 12:57 37.74914 -111.78965 36205 ft 461 kts 235°
2026-05-07 12:58 37.70940 -111.85351 36215 ft 461 kts 234°
2026-05-07 12:58 37.66967 -111.91707 36257 ft 461 kts 234°
2026-05-07 12:59 37.62986 -111.98061 36286 ft 461 kts 234°
2026-05-07 12:59 37.59001 -112.04409 36302 ft 461 kts 234°
2026-05-07 13:00 37.55016 -112.10747 36285 ft 461 kts 234°
2026-05-07 13:00 37.51314 -112.17319 36254 ft 459 kts 240°
2026-05-07 13:01 37.47856 -112.24027 36225 ft 460 kts 240°
2026-05-07 13:01 37.44366 -112.30771 36189 ft 460 kts 240°
2026-05-07 13:02 37.40866 -112.37515 36146 ft 460 kts 240°
2026-05-07 13:02 37.37363 -112.44248 36131 ft 460 kts 239°
2026-05-07 13:03 37.33856 -112.50976 36129 ft 460 kts 239°
2026-05-07 13:03 37.30349 -112.57706 36133 ft 460 kts 239°
2026-05-07 13:04 37.28588 -112.61071 35940 ft 461 kts 239°
2026-05-07 13:04 37.26822 -112.64435 35691 ft 460 kts 239°
2026-05-07 13:04 37.25061 -112.67785 35445 ft 459 kts 239°
2026-05-07 13:04 37.23331 -112.71077 35202 ft 457 kts 239°
2026-05-07 13:05 37.21585 -112.74401 34969 ft 456 kts 239°
2026-05-07 13:05 37.19844 -112.77715 34744 ft 454 kts 239°
2026-05-07 13:05 37.18109 -112.81011 34511 ft 452 kts 239°
2026-05-07 13:05 37.16380 -112.84294 34288 ft 450 kts 239°
2026-05-07 13:06 37.14657 -112.87565 34049 ft 449 kts 239°
2026-05-07 13:06 37.12939 -112.90823 33792 ft 447 kts 239°
2026-05-07 13:06 37.11229 -112.94058 33537 ft 445 kts 239°
2026-05-07 13:06 37.09524 -112.97280 33288 ft 443 kts 239°
2026-05-07 13:07 37.07826 -113.00485 33048 ft 441 kts 239°
2026-05-07 13:07 37.06135 -113.03679 32785 ft 438 kts 239°
2026-05-07 13:07 37.04451 -113.06852 32529 ft 436 kts 239°
2026-05-07 13:07 37.02777 -113.10001 32275 ft 434 kts 239°
2026-05-07 13:08 37.01104 -113.13143 32013 ft 433 kts 239°
2026-05-07 13:08 36.99436 -113.16272 31749 ft 431 kts 239°
2026-05-07 13:08 36.97777 -113.19385 31481 ft 429 kts 238°
2026-05-07 13:08 36.96127 -113.22485 31234 ft 427 kts 239°
2026-05-07 13:09 36.94482 -113.25577 30979 ft 425 kts 238°
2026-05-07 13:09 36.92849 -113.28644 30724 ft 422 kts 238°
2026-05-07 13:09 36.91227 -113.31683 30346 ft 418 kts 238°
2026-05-07 13:09 36.89616 -113.34698 29842 ft 416 kts 238°
2026-05-07 13:10 36.88037 -113.37649 29399 ft 412 kts 238°
2026-05-07 13:10 36.86426 -113.40655 28950 ft 409 kts 238°
2026-05-07 13:10 36.84851 -113.43588 28522 ft 406 kts 238°
2026-05-07 13:10 36.83302 -113.46465 28170 ft 403 kts 238°
2026-05-07 13:11 36.81742 -113.49358 27755 ft 401 kts 238°
2026-05-07 13:11 36.80192 -113.52237 27346 ft 398 kts 238°
2026-05-07 13:11 36.78655 -113.55100 26952 ft 395 kts 238°
2026-05-07 13:11 36.77134 -113.57938 26548 ft 393 kts 238°
2026-05-07 13:12 36.75621 -113.60766 26159 ft 390 kts 238°
2026-05-07 13:12 36.74119 -113.63567 25731 ft 388 kts 238°
2026-05-07 13:12 36.72618 -113.66360 25318 ft 386 kts 238°
2026-05-07 13:12 36.71125 -113.69136 24902 ft 384 kts 238°
2026-05-07 13:13 36.69643 -113.71891 24485 ft 382 kts 238°
2026-05-07 13:13 36.68162 -113.74636 24081 ft 381 kts 238°
2026-05-07 13:13 36.66705 -113.77336 23649 ft 379 kts 238°
2026-05-07 13:13 36.65237 -113.80056 23168 ft 377 kts 238°
2026-05-07 13:14 36.63762 -113.82787 22749 ft 374 kts 238°
2026-05-07 13:14 36.62332 -113.85430 22328 ft 371 kts 238°
2026-05-07 13:14 36.60894 -113.88083 21907 ft 368 kts 238°
2026-05-07 13:14 36.59463 -113.90722 21482 ft 366 kts 238°
2026-05-07 13:15 36.58022 -113.93318 21066 ft 364 kts 236°
2026-05-07 13:15 36.56514 -113.95842 20655 ft 362 kts 234°
2026-05-07 13:15 36.54975 -113.98300 20242 ft 360 kts 234°
2026-05-07 13:15 36.53419 -114.00741 19812 ft 359 kts 233°
2026-05-07 13:16 36.51872 -114.03167 19396 ft 357 kts 234°
2026-05-07 13:16 36.50338 -114.05593 18978 ft 356 kts 234°
2026-05-07 13:16 36.48815 -114.08022 18567 ft 356 kts 234°
2026-05-07 13:16 36.47301 -114.10452 18148 ft 355 kts 234°
2026-05-07 13:17 36.45815 -114.12848 17708 ft 353 kts 234°
2026-05-07 13:17 36.44300 -114.15293 17228 ft 353 kts 234°
2026-05-07 13:17 36.42823 -114.17673 16793 ft 352 kts 234°
2026-05-07 13:17 36.41332 -114.20070 16456 ft 347 kts 234°
2026-05-07 13:18 36.39857 -114.22435 16041 ft 346 kts 234°
2026-05-07 13:18 36.38384 -114.24782 15614 ft 346 kts 233°
2026-05-07 13:18 36.36903 -114.27112 15264 ft 339 kts 233°
2026-05-07 13:18 36.35445 -114.29389 14716 ft 336 kts 233°
2026-05-07 13:19 36.33993 -114.31651 14278 ft 333 kts 233°
2026-05-07 13:19 36.32563 -114.33883 13863 ft 329 kts 233°
2026-05-07 13:19 36.31149 -114.36094 13409 ft 325 kts 233°
2026-05-07 13:19 36.29747 -114.38287 13015 ft 323 kts 233°
2026-05-07 13:20 36.28353 -114.40467 12604 ft 321 kts 233°
2026-05-07 13:20 36.26988 -114.42601 12221 ft 319 kts 233°
2026-05-07 13:20 36.25616 -114.44750 11821 ft 317 kts 233°
2026-05-07 13:20 36.24244 -114.46881 11425 ft 314 kts 232°
2026-05-07 13:21 36.22875 -114.48980 11037 ft 312 kts 232°
2026-05-07 13:21 36.21506 -114.51066 10642 ft 310 kts 232°
2026-05-07 13:21 36.20159 -114.53124 10257 ft 307 kts 232°
2026-05-07 13:21 36.18812 -114.55187 9880 ft 307 kts 232°
2026-05-07 13:22 36.17475 -114.57239 9478 ft 305 kts 232°
2026-05-07 13:22 36.16147 -114.59274 9110 ft 304 kts 232°
2026-05-07 13:22 36.14837 -114.61278 8790 ft 302 kts 232°
2026-05-07 13:22 36.14097 -114.62410 8686 ft 300 kts 232°
2026-05-07 13:23 36.12799 -114.64389 8504 ft 299 kts 232°
2026-05-07 13:23 36.11502 -114.66364 8337 ft 293 kts 232°
2026-05-07 13:23 36.10243 -114.68278 8223 ft 275 kts 232°
2026-05-07 13:23 36.09074 -114.70058 8120 ft 262 kts 232°
2026-05-07 13:24 36.08009 -114.71842 8013 ft 254 kts 243°
2026-05-07 13:24 36.07414 -114.73855 7859 ft 250 kts 262°
2026-05-07 13:24 36.07321 -114.75983 7541 ft 247 kts 273°
2026-05-07 13:24 36.07338 -114.78102 7262 ft 245 kts 272°
2026-05-07 13:25 36.07346 -114.80206 6970 ft 244 kts 272°
2026-05-07 13:25 36.07351 -114.82302 6681 ft 243 kts 272°
2026-05-07 13:25 36.07354 -114.84381 6382 ft 241 kts 272°
2026-05-07 13:25 36.07356 -114.86417 6093 ft 240 kts 271°
2026-05-07 13:26 36.07353 -114.88474 5803 ft 236 kts 271°
2026-05-07 13:26 36.07353 -114.90449 5491 ft 225 kts 272°
2026-05-07 13:26 36.07355 -114.92339 5187 ft 214 kts 271°
2026-05-07 13:26 36.07358 -114.94128 4920 ft 204 kts 272°
2026-05-07 13:27 36.07359 -114.95291 4750 ft 201 kts 271°
2026-05-07 13:27 36.07361 -114.97007 4493 ft 199 kts 271°
2026-05-07 13:27 36.07363 -114.98703 4264 ft 194 kts 271°
2026-05-07 13:27 36.07363 -115.00308 3991 ft 182 kts 271°
2026-05-07 13:28 36.07364 -115.01854 3780 ft 177 kts 272°
2026-05-07 13:28 36.07365 -115.03357 3560 ft 174 kts 272°
2026-05-07 13:28 36.07365 -115.04799 3352 ft 161 kts 271°
2026-05-07 13:28 36.07365 -115.06140 3149 ft 154 kts 272°
2026-05-07 13:29 36.07366 -115.07438 2947 ft 152 kts 270°
2026-05-07 13:29 36.07366 -115.08739 2740 ft 150 kts 270°
2026-05-07 13:29 36.07365 -115.10034 2528 ft 150 kts 270°
2026-05-07 13:29 36.07366 -115.11305 2316 ft 149 kts 269°
2026-05-07 13:30 36.07368 -115.12584 2128 ft 149 kts 270°
2026-05-07 13:30 36.07366 -115.13777 2077 ft 117 kts 270°
2026-05-07 13:30 36.07366 -115.14372 2090 ft 39 kts 270°
2026-05-07 13:30 36.07366 -115.14549 2091 ft 20 kts 270°
2026-05-07 13:31 36.07368 -115.14693 2092 ft 19 kts 273°
2026-05-07 13:31 36.07391 -115.14845 2096 ft 18 kts 286°
2026-05-07 13:31 36.07433 -115.14967 2098 ft 16 kts 299°
2026-05-07 13:31 36.07481 -115.15067 2099 ft 14 kts 303°
2026-05-07 13:32 36.07532 -115.15132 2103 ft 6 kts 326°
2026-05-07 13:32 36.07561 -115.15150 2105 ft 6 kts 333°
2026-05-07 13:32 36.07609 -115.15179 2109 ft 13 kts 334°
2026-05-07 13:32 36.07697 -115.15230 2109 ft 15 kts 335°
2026-05-07 13:33 36.07815 -115.15297 2101 ft 21 kts 335°
2026-05-07 13:33 36.07941 -115.15371 2098 ft 19 kts 335°
2026-05-07 13:33 36.08050 -115.15434 2098 ft 15 kts 335°
2026-05-07 13:33 36.08150 -115.15491 2098 ft 16 kts 335°
2026-05-07 13:34 36.08254 -115.15551 2099 ft 17 kts 335°
2026-05-07 13:34 36.08435 -115.15656 2101 ft 11 kts 335°
2026-05-07 13:34 36.08492 -115.15661 2102 ft 9 kts 31°
2026-05-07 13:35 36.08545 -115.15613 2100 ft 9 kts 27°
2026-05-07 13:35 36.08579 -115.15592 2100 ft 2 kts 26°
2026-05-07 13:35 36.08598 -115.15580 2099 ft 5 kts 25°
2026-05-07 13:35 36.08635 -115.15556 2099 ft 7 kts 34°
2026-05-07 13:36 36.08625 -115.15511 2098 ft 6 kts 140°
2026-05-07 13:36 36.08594 -115.15483 2098 ft 3 kts 147°
2026-05-07 13:36 36.08580 -115.15472 2098 ft 1 kts 146°
2026-05-07 13:36 36.08573 -115.15467 2098 ft 1 kts 146°
2026-05-07 13:37 36.08570 -115.15464 2098 ft 0 kts 146°